, MS

(GMT )
Nakika

Weather History for KIKT - May, 2014

Change the Weather History Date:

Tuesday, May 20, 2014

  Actual Average Record
Temperature  
Mean Temperature 76 °F -  
Max Temperature 78 °F - - ()
Min Temperature 73 °F - - ()
Cooling Degree Days 10    
Growing Degree Days 26 (Base 50)    
Moisture  
Dew Point 70 °F    
Average Humidity 79    
Maximum Humidity 89    
Minimum Humidity 73    
Precipitation  
Precipitation 0.00 in - - ()
Sea Level Pressure  
Sea Level Pressure 30.16 in    
Wind  
Wind Speed 13 mph (ESE)    
Max Wind Speed 16 mph    
Max Gust Speed -    
Visibility 10 miles    
Events      
T = Trace of Precipitation, MM = Missing Value Source: NWS Daily Summary

Daily Weather History Graph

Daily Weather History Graph

Search for Another Location

Airport or City:

Astronomy

May. 20, 2014 Rise Set
Actual Time 5:59 AM CDT 7:39 PM CDT
Civil Twilight 5:33 AM CDT 8:05 PM CDT
Nautical Twilight 5:02 AM CDT 8:37 PM CDT
Astronomical Twilight 4:30 AM CDT 9:09 PM CDT
Moon 12:20 AM CDT (5/20) 11:53 AM CDT (5/20)
Length of Visible Light 14h 31m
Length of Day
13h 39m
Waning Gibbous, 60% of the Moon is Illuminated
May 20
Waning Gibbous
May 21
Last Quarter
May 28
New
Jun 5
First Quarter
Jun 12
Full

Hourly Weather History & Observations

Time (CDT) Temp. Dew Point Humidity Pressure Visibility Wind Dir Wind Speed Gust Speed Precip Events Conditions
12:00 AM 75.2 °F 66.2 °F 73% 30.16 in 10.0 mi East 16.1 mph - N/A   Clear
12:20 AM 75.2 °F 66.2 °F 73% 30.15 in 10.0 mi ESE 16.1 mph - N/A   Clear
12:40 AM 75.2 °F 66.2 °F 73% 30.15 in 10.0 mi East 15.0 mph - N/A   Clear
1:00 AM 75.2 °F 66.2 °F 73% 30.14 in 10.0 mi East 15.0 mph - N/A   Clear
1:20 AM 75.2 °F 66.2 °F 73% 30.14 in 10.0 mi East 12.7 mph - N/A   Clear
1:40 AM 75.2 °F 66.2 °F 73% 30.13 in 10.0 mi East 13.8 mph - N/A   Clear
2:00 AM 75.2 °F 66.2 °F 73% 30.13 in 10.0 mi ESE 12.7 mph - N/A   Clear
2:20 AM 73.4 °F 66.2 °F 78% 30.13 in 10.0 mi ESE 12.7 mph - N/A   Clear
2:40 AM 73.4 °F 68.0 °F 83% 30.13 in 10.0 mi East 11.5 mph - N/A   Clear
3:00 AM 73.4 °F 68.0 °F 83% 30.12 in 10.0 mi East 11.5 mph - N/A   Clear
3:20 AM 73.4 °F 68.0 °F 83% 30.12 in 10.0 mi ESE 11.5 mph - N/A   Clear
3:40 AM 73.4 °F 68.0 °F 83% 30.13 in 10.0 mi ESE 10.4 mph - N/A   Clear
4:00 AM 73.4 °F 68.0 °F 83% 30.13 in 10.0 mi ESE 10.4 mph - N/A   Clear
4:20 AM 73.4 °F 68.0 °F 83% 30.12 in 10.0 mi SE 10.4 mph - N/A   Clear
4:40 AM 73.4 °F 68.0 °F 83% 30.12 in 10.0 mi SE 10.4 mph - N/A   Clear
5:00 AM 73.4 °F 68.0 °F 83% 30.12 in 10.0 mi SSE 11.5 mph - N/A   Clear
5:20 AM 73.4 °F 68.0 °F 83% 30.12 in 10.0 mi SE 10.4 mph - N/A   Clear
5:40 AM 73.4 °F 68.0 °F 83% 30.13 in 10.0 mi SE 9.2 mph - N/A   Clear
6:00 AM 73.4 °F 68.0 °F 83% 30.13 in 10.0 mi SE 9.2 mph - N/A   Clear
6:20 AM 73.4 °F 68.0 °F 83% 30.14 in 10.0 mi SE 9.2 mph - N/A   Clear
6:40 AM 75.2 °F 68.0 °F 78% 30.15 in 10.0 mi ESE 8.1 mph - N/A   Clear
7:00 AM 75.2 °F 68.0 °F 78% 30.15 in 10.0 mi ESE 8.1 mph - N/A   Clear
7:20 AM 77.0 °F 69.8 °F 78% 30.16 in 10.0 mi East 9.2 mph - N/A   Clear
7:40 AM 77.0 °F 69.8 °F 78% 30.16 in 10.0 mi ESE 10.4 mph - N/A   Clear
8:00 AM 77.0 °F 69.8 °F 78% 30.17 in 10.0 mi ESE 10.4 mph - N/A   Clear
8:20 AM 77.0 °F 69.8 °F 78% 30.18 in 10.0 mi ESE 10.4 mph - N/A   Clear
8:40 AM 77.0 °F 69.8 °F 78% 30.18 in 10.0 mi ESE 11.5 mph - N/A   Clear
9:00 AM 78.8 °F 69.8 °F 74% 30.18 in 10.0 mi ESE 10.4 mph - N/A   Clear
9:20 AM 78.8 °F 69.8 °F 74% 30.19 in 10.0 mi ESE 10.4 mph - N/A   Clear
9:40 AM 78.8 °F 69.8 °F 74% 30.19 in 10.0 mi ESE 10.4 mph - N/A   Clear
10:00 AM 78.8 °F 69.8 °F 74% 30.19 in 10.0 mi ESE 10.4 mph - N/A   Clear
10:20 AM 78.8 °F 69.8 °F 74% 30.19 in 10.0 mi ESE 10.4 mph - N/A   Clear
10:40 AM 78.8 °F 69.8 °F 74% 30.20 in 10.0 mi ESE 11.5 mph - N/A   Clear
11:00 AM 78.8 °F 69.8 °F 74% 30.19 in 10.0 mi ESE 10.4 mph - N/A   Clear
11:20 AM 78.8 °F 69.8 °F 74% 30.20 in 10.0 mi ESE 10.4 mph - N/A   Clear
11:40 AM 78.8 °F 69.8 °F 74% 30.20 in 10.0 mi ESE 10.4 mph - N/A   Clear
12:00 PM 78.8 °F 71.6 °F 78% 30.20 in 10.0 mi ESE 10.4 mph - N/A   Clear
12:20 PM 78.8 °F 71.6 °F 78% 30.20 in 10.0 mi East 11.5 mph - N/A   Clear
12:40 PM 78.8 °F 71.6 °F 78% 30.20 in 10.0 mi East 11.5 mph - N/A   Clear
1:00 PM 78.8 °F 71.6 °F 78% 30.20 in 10.0 mi East 11.5 mph - N/A   Clear
1:20 PM 78.8 °F 71.6 °F 78% 30.19 in 10.0 mi East 11.5 mph - N/A   Clear
1:40 PM 78.8 °F 71.6 °F 78% 30.19 in 10.0 mi East 12.7 mph - N/A   Clear
2:00 PM 78.8 °F 71.6 °F 78% 30.19 in 10.0 mi East 12.7 mph - N/A   Clear
2:20 PM 78.8 °F 71.6 °F 78% 30.19 in 10.0 mi East 13.8 mph - N/A   Clear
2:40 PM 78.8 °F 71.6 °F 78% 30.19 in 10.0 mi East 11.5 mph - N/A   Clear
3:00 PM 78.8 °F 73.4 °F 83% 30.18 in 10.0 mi East 11.5 mph - N/A   Clear
3:20 PM 78.8 °F 71.6 °F 78% 30.18 in 10.0 mi East 12.7 mph - N/A   Clear
3:40 PM 78.8 °F 71.6 °F 78% 30.18 in 10.0 mi East 12.7 mph - N/A   Clear
4:00 PM 78.8 °F 71.6 °F 78% 30.17 in 10.0 mi East 12.7 mph - N/A   Clear
4:20 PM 78.8 °F 71.6 °F 78% 30.17 in 10.0 mi East 13.8 mph - N/A   Clear
4:40 PM 78.8 °F 71.6 °F 78% 30.16 in 10.0 mi East 13.8 mph - N/A   Clear
5:00 PM 77.0 °F 71.6 °F 83% 30.16 in 10.0 mi East 15.0 mph - N/A   Clear
5:20 PM 77.0 °F 71.6 °F 83% 30.16 in 10.0 mi East 15.0 mph - N/A   Clear
5:40 PM 77.0 °F 71.6 °F 83% 30.16 in 10.0 mi East 15.0 mph - N/A   Clear
6:00 PM 77.0 °F 73.4 °F 89% 30.15 in 10.0 mi East 12.7 mph - N/A   Clear
6:20 PM 77.0 °F 73.4 °F 89% 30.15 in 10.0 mi ESE 12.7 mph - N/A   Clear
6:40 PM 77.0 °F 71.6 °F 83% 30.15 in 10.0 mi SE 12.7 mph - N/A   Clear
7:00 PM 77.0 °F 69.8 °F 78% 30.15 in 10.0 mi SE 12.7 mph - N/A   Clear
7:20 PM 77.0 °F 69.8 °F 78% 30.15 in 10.0 mi SE 12.7 mph - N/A   Clear
7:40 PM 77.0 °F 69.8 °F 78% 30.15 in 10.0 mi SE 12.7 mph - N/A   Clear
8:00 PM 77.0 °F 69.8 °F 78% 30.15 in 10.0 mi SE 11.5 mph - N/A   Clear
8:20 PM 75.2 °F 69.8 °F 83% 30.15 in 10.0 mi ESE 12.7 mph - N/A   Clear
8:40 PM 75.2 °F 71.6 °F 89% 30.15 in 10.0 mi ESE 11.5 mph - N/A   Clear
9:00 PM 75.2 °F 69.8 °F 83% 30.16 in - ESE 11.5 mph - N/A   Clear
9:20 PM 75.2 °F 69.8 °F 83% 30.16 in 10.0 mi ESE 11.5 mph - N/A   Clear
9:40 PM 75.2 °F 69.8 °F 83% 30.16 in 10.0 mi ESE 12.7 mph - N/A   Clear
10:00 PM 75.2 °F 69.8 °F 83% 30.16 in 10.0 mi ESE 12.7 mph - N/A   Clear
10:20 PM 75.2 °F 71.6 °F 89% 30.16 in 10.0 mi ESE 13.8 mph - N/A   Clear
10:40 PM 75.2 °F 69.8 °F 83% 30.16 in 10.0 mi ESE 13.8 mph - N/A   Clear
11:00 PM 75.2 °F 69.8 °F 83% 30.16 in 10.0 mi ESE 13.8 mph - N/A   Clear
11:20 PM 75.2 °F 69.8 °F 83% 30.16 in 10.0 mi ESE 13.8 mph - N/A   Clear
11:40 PM 75.2 °F 69.8 °F 83% 30.15 in 10.0 mi ESE 12.7 mph - N/A   Clear